• In Hungary
  • List of Countries
  • For 7 days
  • Water Temperature
  • Satellite Maps
  • Weather Map
  • News
  • Weather Widgets
  • user-avatar
    Login

    Hourly Weather Malodobra

    Today, 26 September, Wednesday

    Time Temperature Precipitation Wind Pressure Humidity
    00:00 +4°C° 0 mm 2 mps 760 mmHg 72%
    01:00 +4°C° 0 mm 2 mps 761 mmHg 76%
    02:00 +4°C° 0 mm 2 mps 761 mmHg 78%
    03:00 +3°C° 0 mm 2 mps 761 mmHg 80%
    04:00 +3°C° 0 mm 2 mps 761 mmHg 82%
    05:00 +4°C° 0 mm 2 mps 761 mmHg 80%
    06:00 +4°C° 0 mm 2 mps 761 mmHg 78%
    07:00 +5°C° 0 mm 2 mps 761 mmHg 76%
    08:00 +7°C° 0 mm 3 mps 761 mmHg 69%
    09:00 +9°C° 0 mm 3 mps 761 mmHg 61%
    10:00 +11°C° 0 mm 3 mps 761 mmHg 54%
    11:00 +12°C° 0 mm 3 mps 760 mmHg 51%
    12:00 +13°C° 0 mm 3 mps 760 mmHg 49%
    13:00 +14°C° 0 mm 3 mps 759 mmHg 46%
    14:00 +13°C° 0 mm 3 mps 759 mmHg 48%
    15:00 +14°C° 0 mm 2 mps 758 mmHg 51%
    16:00 +14°C° 0 mm 2 mps 758 mmHg 54%
    17:00 +13°C° 0 mm 2 mps 757 mmHg 53%
    18:00 +11°C° 0 mm 3 mps 757 mmHg 53%
    19:00 +11°C° 0 mm 3 mps 757 mmHg 53%
    20:00 +10°C° 0 mm 3 mps 757 mmHg 54%
    21:00 +10°C° 0 mm 4 mps 757 mmHg 55%
    22:00 +10°C° 0 mm 4 mps 757 mmHg 56%
    23:00 +10°C° 0 mm 4 mps 756 mmHg 54%

    Tomorrow, 27 September, Thursday

    Time Temperature Precipitation Wind Pressure Humidity
    00:00 +10°C° 0 mm 5 mps 756 mmHg 53%
    01:00 +10°C° 0 mm 5 mps 756 mmHg 52%
    02:00 +10°C° 0 mm 5 mps 755 mmHg 50%
    03:00 +10°C° 0 mm 5 mps 755 mmHg 48%
    04:00 +10°C° 0 mm 5 mps 755 mmHg 47%
    05:00 +10°C° 0 mm 5 mps 754 mmHg 47%
    06:00 +10°C° 0 mm 5 mps 754 mmHg 47%
    07:00 +10°C° 0 mm 5 mps 754 mmHg 48%
    08:00 +12°C° 0 mm 5 mps 754 mmHg 48%
    09:00 +13°C° 0 mm 5 mps 754 mmHg 49%
    10:00 +14°C° 0 mm 5 mps 754 mmHg 49%
    11:00 +15°C° 0 mm 6 mps 754 mmHg 50%
    12:00 +16°C° 0 mm 6 mps 754 mmHg 50%
    13:00 +19°C° 0 mm 6 mps 753 mmHg 51%
    14:00 +19°C° 0 mm 5 mps 753 mmHg 54%
    15:00 +17°C° 0 mm 5 mps 753 mmHg 56%
    16:00 +18°C° 0 mm 4 mps 752 mmHg 59%
    17:00 +17°C° 0 mm 4 mps 752 mmHg 60%
    18:00 +14°C° 0 mm 4 mps 752 mmHg 61%
    19:00 +13°C° 0 mm 4 mps 752 mmHg 63%
    20:00 +12°C° 0 mm 4 mps 752 mmHg 61%
    21:00 +12°C° 0 mm 3 mps 752 mmHg 60%
    22:00 +12°C° 0 mm 3 mps 752 mmHg 59%
    23:00 +11°C° 0 mm 4 mps 751 mmHg 58%

    Day after tomorrow, 28 September, Friday

    Time Temperature Precipitation Wind Pressure Humidity
    00:00 +11°C° 0 mm 4 mps 751 mmHg 57%
    01:00 +11°C° 0 mm 4 mps 750 mmHg 56%
    02:00 +11°C° 0 mm 4 mps 750 mmHg 56%
    03:00 +11°C° 0 mm 4 mps 749 mmHg 56%
    04:00 +11°C° 0 mm 4 mps 749 mmHg 56%
    05:00 +11°C° 0 mm 4 mps 748 mmHg 56%
    06:00 +11°C° 0 mm 4 mps 748 mmHg 57%
    07:00 +12°C° 0 mm 4 mps 748 mmHg 58%
    08:00 +14°C° 0 mm 4 mps 748 mmHg 55%
    09:00 +15°C° 0 mm 5 mps 747 mmHg 52%
    10:00 +17°C° 0 mm 5 mps 747 mmHg 49%
    11:00 +19°C° 0 mm 5 mps 747 mmHg 47%
    12:00 +20°C° 0 mm 5 mps 747 mmHg 45%
    13:00 +21°C° 0 mm 5 mps 746 mmHg 43%
    14:00 +21°C° 0 mm 4 mps 746 mmHg 46%
    15:00 +20°C° 0 mm 3 mps 746 mmHg 50%
    16:00 +19°C° 0 mm 3 mps 746 mmHg 53%
    17:00 +17°C° 0 mm 3 mps 746 mmHg 60%
    18:00 +14°C° 0 mm 3 mps 746 mmHg 67%
    19:00 +13°C° 0 mm 2 mps 747 mmHg 74%
    20:00 +13°C° 0 mm 2 mps 747 mmHg 80%
    21:00 +12°C° 0 mm 2 mps 747 mmHg 86%
    22:00 +11°C° 0 mm 1 mps 747 mmHg 91%
    23:00 +12°C° 0 mm 1 mps 747 mmHg 90%

    29 September, Saturday

    Time Temperature Precipitation Wind Pressure Humidity
    00:00 +12°C° 0 mm 1 mps 747 mmHg 90%
    01:00 +12°C° 0 mm 1 mps 748 mmHg 89%
    02:00 +12°C° 0 mm 1 mps 748 mmHg 88%
    03:00 +12°C° 0 mm 2 mps 748 mmHg 87%
    04:00 +10°C° 0 mm 2 mps 748 mmHg 86%
    05:00 +10°C° 0.1 mm 2 mps 748 mmHg 85%
    06:00 +10°C° 0.1 mm 2 mps 748 mmHg 84%
    07:00 +10°C° 0.1 mm 2 mps 748 mmHg 84%
    08:00 +11°C° 0.1 mm 3 mps 749 mmHg 80%
    09:00 +11°C° 0.1 mm 3 mps 749 mmHg 76%
    10:00 +12°C° 0.1 mm 3 mps 750 mmHg 72%
    11:00 +12°C° 0.1 mm 3 mps 750 mmHg 69%
    12:00 +13°C° 0.1 mm 3 mps 750 mmHg 65%
    13:00 +13°C° 0.1 mm 3 mps 750 mmHg 61%
    14:00 +13°C° 0 mm 3 mps 750 mmHg 62%
    15:00 +13°C° 0 mm 3 mps 750 mmHg 63%
    16:00 +14°C° 0 mm 2 mps 750 mmHg 65%
    17:00 +13°C° 0 mm 2 mps 751 mmHg 69%
    18:00 +12°C° 0 mm 2 mps 751 mmHg 74%
    19:00 +9°C° 0 mm 2 mps 751 mmHg 79%
    20:00 +9°C° 0 mm 2 mps 752 mmHg 81%
    21:00 +8°C° 0 mm 2 mps 752 mmHg 84%
    22:00 +8°C° 0 mm 2 mps 752 mmHg 86%
    23:00 +8°C° 0 mm 2 mps 752 mmHg 87%

    30 September, Sunday

    Time Temperature Precipitation Wind Pressure Humidity
    00:00 +7°C° 0 mm 2 mps 752 mmHg 88%
    01:00 +7°C° 0 mm 3 mps 752 mmHg 90%
    02:00 +7°C° 0 mm 2 mps 752 mmHg 90%
    03:00 +6°C° 0 mm 2 mps 752 mmHg 91%
    04:00 +6°C° 0 mm 2 mps 752 mmHg 92%
    05:00 +7°C° 0 mm 2 mps 752 mmHg 90%
    06:00 +7°C° 0 mm 3 mps 752 mmHg 87%
    07:00 +8°C° 0 mm 3 mps 752 mmHg 85%
    08:00 +10°C° 0 mm 3 mps 752 mmHg 79%
    09:00 +12°C° 0 mm 3 mps 752 mmHg 73%
    10:00 +14°C° 0 mm 3 mps 751 mmHg 67%
    11:00 +16°C° 0 mm 3 mps 751 mmHg 66%
    12:00 +17°C° 0 mm 3 mps 750 mmHg 64%
    13:00 +18°C° 0 mm 3 mps 750 mmHg 62%
    14:00 +18°C° 0 mm 3 mps 750 mmHg 65%
    15:00 +17°C° 0 mm 3 mps 749 mmHg 68%
    16:00 +17°C° 0 mm 2 mps 749 mmHg 70%
    17:00 +16°C° 0 mm 2 mps 749 mmHg 76%
    18:00 +14°C° 0 mm 2 mps 749 mmHg 82%
    19:00 +13°C° 0 mm 2 mps 749 mmHg 88%
    20:00 +12°C° 0 mm 2 mps 749 mmHg 90%
    21:00 +12°C° 0 mm 2 mps 749 mmHg 91%
    22:00 +11°C° 0 mm 1 mps 748 mmHg 93%
    23:00 +11°C° 0 mm 1 mps 748 mmHg 93%

    1 October, Monday

    Time Temperature Precipitation Wind Pressure Humidity
    00:00 +11°C° 0 mm 1 mps 748 mmHg 93%
    01:00 +11°C° 0 mm 1 mps 747 mmHg 94%
    02:00 +10°C° 0 mm 1 mps 747 mmHg 94%
    03:00 +10°C° 0 mm 1 mps 747 mmHg 94%
    04:00 +10°C° 0 mm 1 mps 747 mmHg 94%
    05:00 +11°C° 0 mm 1 mps 747 mmHg 92%
    06:00 +10°C° 0 mm 0 mps 747 mmHg 89%
    07:00 +11°C° 0 mm 0 mps 746 mmHg 87%
    08:00 +13°C° 0 mm 0 mps 746 mmHg 80%
    09:00 +15°C° 0 mm 0 mps 746 mmHg 73%
    10:00 +17°C° 0 mm 0 mps 746 mmHg 66%
    11:00 +18°C° 0 mm 0 mps 746 mmHg 64%
    12:00 +20°C° 0 mm 1 mps 746 mmHg 61%
    13:00 +21°C° 0 mm 1 mps 745 mmHg 58%
    14:00 +21°C° 0.4 mm 1 mps 745 mmHg 62%
    15:00 +20°C° 0.4 mm 1 mps 745 mmHg 66%
    16:00 +20°C° 0.4 mm 1 mps 744 mmHg 69%
    17:00 +19°C° 0.3 mm 1 mps 744 mmHg 73%
    18:00 +16°C° 0.3 mm 1 mps 745 mmHg 77%
    19:00 +15°C° 0.3 mm 1 mps 745 mmHg 81%
    20:00 +15°C° 0.1 mm 1 mps 744 mmHg 83%
    21:00 +15°C° 0.1 mm 1 mps 744 mmHg 85%
    22:00 +14°C° 0.1 mm 1 mps 744 mmHg 87%
    23:00 +14°C° 0.7 mm 1 mps 744 mmHg 88%
    Show more